This demonstration page uses our WeatherBlox Daily Observations layout. Learn more.

Left ArrowRight Arrow

Hourly Observations for March 12, 2021

Temp ( °F °C ) Dew Point ( °F °C ) Humidity (%) Winds ( mph kmh ) Pressure ( in mb ) Visibility ( mi km ) Precip ( " mm )
12:53 am 00:53 Clear 23 -5 19 -7.2 85 85 Calm 30.16 1021 10 16.0934 0 0
1:53 am 01:53 Clear 25 -3.9 20 -6.7 81 81 SW 7 11 30.16 1022 10 16.0934 0 0
2:53 am 02:53 Clear 27 -2.8 22 -5.6 81 81 SW 14 22 30.15 1021 10 16.0934 0 0
3:53 am 03:53 Clear 26 -3.3 22 -5.6 84 84 SW 14 22 30.16 1021 10 16.0934 0 0
4:53 am 04:53 Clear 26 -3.3 21 -6.1 81 81 SW 9 15 30.16 1022 10 16.0934 0 0
5:53 am 05:53 Clear 24 -4.4 19 -7.2 81 81 SW 6 9 30.19 1022 10 16.0934 0 0
6:53 am 06:53 Sunny 24 -4.4 19 -7.2 81 81 SW 7 11 30.19 1023 10 16.0934 0 0
7:53 am 07:53 Sunny 29 -1.7 22 -5.6 75 75 WSW 6 9 30.2 1023 10 16.0934 0 0
8:53 am 08:53 Sunny 37 2.8 25 -3.9 62 62 SW 13 20 30.2 1023 10 16.0934 0 0
9:53 am 09:53 Sunny 42 5.6 21 -6.1 43 43 SW 23 37 30.19 1023 10 16.0934 0 0
10:53 am 10:53 Sunny 44 6.7 23 -5 43 43 SW 21 33 30.19 1022 10 16.0934 0 0
11:53 am 11:53 Sunny 47 8.3 24 -4.4 41 41 SW 18 30 30.19 1022 10 16.0934 0 0
12:53 pm 12:53 Sunny 50 10 24 -4.4 36 36 SW 18 30 30.17 1022 10 16.0934 0 0
1:53 pm 13:53 Sunny 52 11.1 22 -5.6 31 31 SSW 16 26 30.14 1021 10 16.0934 0 0
2:53 pm 14:53 Sunny 53 11.7 18 -7.8 25 25 WSW 10 17 30.13 1020 10 16.0934 0 0
3:53 pm 15:53 Sunny 54 12.2 17 -8.3 23 23 SW 13 20 30.13 1020 10 16.0934 0 0
4:53 pm 16:53 Sunny 53 11.7 19 -7.2 26 26 SW 9 15 30.12 1020 10 16.0934 0 0
5:53 pm 17:53 Sunny 48 8.9 23 -5 37 37 SSW 7 11 30.13 1020 10 16.0934 0 0
6:53 pm 18:53 Clear 37 2.8 20 -6.7 50 50 S 7 11 30.17 1022 10 16.0934 0 0
7:53 pm 19:53 Clear 37 2.8 21 -6.1 52 52 S 9 15 30.17 1022 10 16.0934 0 0
8:53 pm 20:53 Clear 37 2.8 20 -6.7 50 50 S 6 9 30.18 1022 10 16.0934 0 0
9:53 pm 21:53 Clear 36 2.2 20 -6.7 52 52 SSW 5 7 30.19 1022 10 16.0934 0 0
10:53 pm 22:53 Clear 31 -0.6 21 -6.1 67 67 WSW 5 7 30.2 1023 10 16.0934 0 0
11:53 pm 23:53 Clear 30 -1.1 21 -6.1 69 69 WSW 5 7 30.2 1023 10 16.0934 0 0

Powered by AerisWeather